W6DSP Weather Reports


Display with metric or nautical units.
time (UTC)temp
F
wind
direction
speed
MPH
gust
MPH
rain 1hr
in
rain 24hr
in
rain mn
in
humidity
%
barometer
mb
20260904133354 79 291 0.0 4.0 0.00 0.01 0.00 87 1014.7
20260904130918 76 111 0.0 0.0 0.00 0.01 0.00 92 1014.7
20260904110822 72 111 0.0 0.0 0.00 0.01 0.00 93 1013.7
20260904104412 71 111 0.0 0.0 0.00 0.01 0.00 93 1013.4
20260904103140 71 111 0.0 1.0 0.00 0.01 0.00 93 1013.2
20260904102002 72 111 0.0 0.0 0.00 0.01 0.00 93 1012.9
20260904100807 71 111 0.0 0.0 0.00 0.01 0.00 93 1013.2
20260904095625 72 111 0.0 0.0 0.00 0.01 0.00 93 1013.3
20260904094409 72 111 0.0 0.0 0.00 0.01 0.00 93 1013.5
20260904093148 72 111 0.0 0.0 0.00 0.01 0.00 93 1013.6
20260904083309 72 111 0.0 0.0 0.00 0.01 0.00 92 1013.6
20260904082048 72 111 0.0 0.0 0.00 0.01 0.00 92 1013.2
20260904080839 73 111 0.0 0.0 0.00 0.01 0.00 92 1012.9
20260904074420 73 111 0.0 0.0 0.00 0.01 0.00 92 1013.1
20260904073141 73 111 0.0 0.0 0.00 0.01 0.00 92 1013.4
20260904070749 73 111 0.0 0.0 0.00 0.01 0.00 92 1013.9
20260904064322 73 111 0.0 0.0 0.00 0.01 0.00 92 1014.2
20260904061847 73 157 0.0 0.0 0.00 0.01 0.00 92 1014.2
20260904055447 74 159 0.0 1.0 0.00 0.01 0.00 92 1014.4
20260904051833 73 156 0.0 0.0 0.00 0.01 0.00 92 1014.5
20260904050702 73 156 0.0 0.0 0.00 0.01 0.00 91 1014.5
20260904045432 73 156 0.0 0.0 0.00 0.01 0.00 91 1014.5
20260904044217 73 156 0.0 0.0 0.00 0.01 0.00 91 1014.5
20260904025310 73 159 0.0 0.0 0.00 0.01 0.01 90 1014.6
20260904024112 73 159 0.0 0.0 0.00 0.01 0.01 89 1014.5
20260904022849 74 159 0.0 0.0 0.00 0.01 0.01 89 1014.6
20260904015306 74 159 0.0 0.0 0.00 0.01 0.01 87 1014.6
20260904014053 75 159 0.0 0.0 0.00 0.01 0.01 86 1014.5
20260904012859 75 159 0.0 1.0 0.00 0.01 0.01 84 1014.6
20260904011728 76 168 0.0 4.0 0.00 0.01 0.01 84 1014.6
20260904005259 77 119 0.0 4.0 0.00 0.01 0.01 83 1014.8
20260904001658 78 123 1.0 9.0 0.00 0.01 0.01 81 1014.4
20260903235221 80 28 0.0 6.0 0.00 0.01 0.01 79 1014.2
20260903233942 81 62 0.0 3.0 0.00 0.01 0.01 78 1014.4
20260903231521 82 104 1.0 11.0 0.00 0.01 0.01 77 1014.2
20260903230341 82 55 4.0 11.0 0.00 0.01 0.01 76 1013.3
20260903220356 86 0 4.0 12.0 0.00 0.01 0.01 74 1013.2
20260903213842 87 291 5.0 18.0 0.00 0.00 0.00 68 1012.8
20260903212627 93 62 0.0 3.0 0.00 0.00 0.00 65 1012.5
20260903205023 94 102 0.0 3.0 0.00 0.00 0.00 66 1012.4
20260903203752 94 331 1.0 7.0 0.00 0.00 0.00 63 1012.4
20260903194831 94 320 1.0 7.0 0.00 0.00 0.00 61 1012.4
20260903193621 94 169 1.0 9.0 0.00 0.00 0.00 66 1012.5
20260903191229 93 240 1.0 6.0 0.00 0.00 0.00 62 1013.3
20260903190054 93 107 1.0 9.0 0.00 0.00 0.00 65 1013.6
20260903182501 93 84 1.0 9.0 0.00 0.00 0.00 66 1014.0
20260903174905 92 136 1.0 9.0 0.00 0.00 0.00 67 1014.1
20260903173706 92 30 1.0 6.0 0.00 0.00 0.00 66 1014.0
20260903164952 91 81 1.0 12.0 0.00 0.00 0.00 70 1014.2
20260903161325 89 251 0.0 8.0 0.00 0.00 0.00 67 1014.9
20260903150128 87 189 1.0 6.0 0.00 0.00 0.00 72 1014.8